This demonstration page uses our WeatherBlox Daily Observations layout. Learn more.

Left ArrowRight Arrow

39.95238, -75.16362

Hourly Observations for April 13, 2015

Temp ( °F °C ) Dew Point ( °F °C ) Humidity (%) Winds ( mph kmh ) Pressure ( in mb ) Visibility ( mi km ) Precip ( " mm )
12:54 am 00:54 Clear 47 8.3 36 2.2 66 66 Calm 30.34 1027 10 16 0.00 0.00
1:54 am 01:54 Clear 46 7.8 37 2.8 71 71 Calm 30.33 1027 10 16 0.00 0.00
2:54 am 02:54 Clear 45 7.2 38 3.3 77 77 Calm 30.33 1027 10 16 0.00 0.00
3:54 am 03:54 Partly Cloudy 45 7.2 39 3.9 80 80 Calm 30.33 1027 10 16 0.00 0.00
4:54 am 04:54 Clear 45 7.2 37 2.8 74 74 Calm 30.33 1027 10 16 0.00 0.00
5:54 am 05:54 Cloudy 45 7.2 38 3.3 77 77 SSE 5 7 30.33 1027 10 16 0.00 0.00
6:54 am 06:54 Cloudy 47 8.3 38 3.3 71 71 Calm 30.35 1028 10 16 0.00 0.00
7:54 am 07:54 Cloudy 49 9.4 40 4.4 71 71 Calm 30.37 1028 10 16 0.00 0.00
8:54 am 08:54 Mostly Cloudy 52 11.1 41 5 66 66 Calm 30.37 1029 10 16 0.00 0.00
9:54 am 09:54 Mostly Cloudy 58 14.4 41 5 53 53 S 6 9 30.36 1028 10 16 0.00 0.00
10:54 am 10:54 Partly Cloudy 65 18.3 39 3.9 39 39 S 13 20 30.33 1027 10 16 0.00 0.00
11:54 am 11:54 Mostly Cloudy 69 20.6 45 7.2 42 42 SW 16 26 30.31 1026 10 16 0.00 0.00
12:54 pm 12:54 Partly Cloudy 70 21.1 48 8.9 46 46 SSW 16 26 30.29 1026 10 16 0.00 0.00
1:54 pm 13:54 Partly Cloudy 73 22.8 49 9.4 43 43 SSW 16 26 30.25 1025 10 16 0.00 0.00
2:54 pm 14:54 Mostly Cloudy 74 23.3 49 9.4 41 41 SSW 16 26 30.22 1023 10 16 0.00 0.00
3:54 pm 15:54 Mostly Cloudy 74 23.3 50 10 43 43 S 17 28 30.20 1023 10 16 0.00 0.00
4:54 pm 16:54 Mostly Cloudy 74 23.3 49 9.4 41 41 S 16 26 30.19 1022 10 16 0.00 0.00
5:54 pm 17:54 Mostly Cloudy 72 22.2 47 8.3 41 41 S 15 24 30.17 1022 10 16 0.00 0.00
6:54 pm 18:54 Partly Cloudy 69 20.6 47 8.3 45 45 SSE 14 22 30.16 1021 10 16 0.00 0.00
7:54 pm 19:54 Partly Cloudy 67 19.4 47 8.3 49 49 S 14 22 30.17 1022 10 16 0.00 0.00
8:54 pm 20:54 Partly Cloudy 65 18.3 47 8.3 52 52 S 15 24 30.19 1022 10 16 0.00 0.00
9:54 pm 21:54 Mostly Cloudy 64 17.8 46 7.8 52 52 S 13 20 30.18 1022 10 16 0.00 0.00
10:54 pm 22:54 Mostly Cloudy 62 16.7 49 9.4 62 62 SSW 9 15 30.18 1022 10 16 0.00 0.00
11:54 pm 23:54 Mostly Clear 61 16.1 50 10 67 67 SSW 8 13 30.17 1022 10 16 0.00 0.00

Powered by AerisWeather